Regional Weather Roundup
Issued by NWS

Home | Current Version | Previous Version | Text Only | Print | Product List | Glossary On
Versions: 1 2 3 4 5 6 7 8 9 10 11 12 13 14 15 16 17 18 19 20 21 22 23 24 25 26 27
000
ASUS45 KREV 191210
RWRNV
NEVADA REGIONAL WEATHER ROUNDUP
NATIONAL WEATHER SERVICE RENO NV
400 AM PST THU JAN 19 2017

NOTE: "FAIR" INDICATES FEW OR NO CLOUDS BELOW 12,000 FEET WITH NO
SIGNIFICANT WEATHER AND/OR OBSTRUCTIONS TO VISIBILITY.

NVZ001-003-004-191300-
WESTERN NEVADA

CITY           SKY/WX    TMP DP  RH WIND       PRES   REMARKS
RENO           MOCLDY    37  30  75 W7        29.69F
6HR MIN TEMP:  36; 6HR MAX TEMP:  45; 6HR PCP: TRACE;

CARSON CITY    MOCLDY    36  28  75 S3        29.72F
MINDEN         FAIR      34  28  80 S21G26    29.71F
PYRAMID LAKE     N/A     43 N/A N/A S14         N/A
FALLON         PTCLDY    37  27  67 S9        29.70S
6HR MIN TEMP:  36; 6HR MAX TEMP:  42; 6HR PCP: TRACE;

LOVELOCK       MOCLDY    34  31  88 SW8       29.68S
6HR MIN TEMP:  31; 6HR MAX TEMP:  34; 6HR PCP:  0.02;

HAWTHORNE        N/A    N/A N/A N/A MISG        N/A
$$

NVZ002-CAZ072-073-191300-
NORTHERN AND CENTRAL SIERRA

CITY           SKY/WX    TMP DP  RH WIND       PRES   REMARKS
S. LAKE TAHOE  MOCLDY    32  24  72 VRB5G25   29.70S
6HR MIN TEMP:  31; 6HR MAX TEMP:  35; 6HR PCP:  0.12;

TRUCKEE        LGT SNOW  30  28  93 S7G17     29.69F
SQUAW VLY 8000   N/A     25  25 100 S12         N/A
MAMMOTH LAKES  SNOW      28  28 100 SE8       29.75S VSB 1/2
6HR MIN TEMP:  27; 6HR MAX TEMP:  30;

BRIDGEPORT     FLURRIES  27  22  81 VRB5      29.68F
$$

NVZ030-031-036-191300-
NORTHERN NEVADA

CITY           SKY/WX    TMP DP  RH WIND       PRES   REMARKS
ELKO           CLOUDY    34  28  79 S7        29.71S
6HR MIN TEMP:  26; 6HR MAX TEMP:  35; 6HR PCP:  0.01;

WINNEMUCCA     MOCLDY    35  33  92 SW9       29.67S
6HR MIN TEMP:  34; 6HR MAX TEMP:  37; 6HR PCP:  0.01;

WENDOVER       CLOUDY    23  19  86 CALM      29.80F VSB 1
$$

NVZ035-037-191300-
CENTRAL NEVADA

CITY           SKY/WX    TMP DP  RH WIND       PRES   REMARKS
ELY            LGT SNOW  28  26  92 SW15      29.77F FOG
6HR MIN TEMP:  28; 6HR MAX TEMP:  29; 6HR PCP:  0.10;

EUREKA           N/A     32  25  75 W12       29.74S
6HR MIN TEMP:  30; 6HR MAX TEMP:  34;

$$

NVZ013-014-191300-
SOUTH CENTRAL NEVADA

CITY           SKY/WX    TMP DP  RH WIND       PRES   REMARKS
TONOPAH        CLOUDY    31  29  92 S7        29.79F
6HR MIN TEMP:  31; 6HR MAX TEMP:  33; 6HR PCP:  0.02;

$$

NVZ017-020-022-191300-
SOUTHERN NEVADA

CITY           SKY/WX    TMP DP  RH WIND       PRES   REMARKS
LAS VEGAS      CLOUDY    51  37  58 VRB5      29.83F
6HR MIN TEMP:  49; 6HR MAX TEMP:  55;

N. LAS VEGAS   CLOUDY    50  37  61 S13       29.83F
6HR MIN TEMP:  49; 6HR MAX TEMP:  53;

NELLIS AFB     CLOUDY    52  38  59 E13G18    29.84F
6HR MIN TEMP:  51; 6HR MAX TEMP:  54; 6HR PCP: TRACE;

HENDERSON      CLOUDY    49  38  65 SW15      29.86F
6HR MIN TEMP:  47; 6HR MAX TEMP:  53; 6HR PCP: TRACE;

MERCURY        CLOUDY    43  36  76 CALM      29.82S
6HR MIN TEMP:  42; 6HR MAX TEMP:  44; 6HR PCP: TRACE;

$$




USA.gov is the U.S. government's official web portal to all federal, state and local government web resources and services.